Theta_e
316 317 317 316 317 317 317 317 318 318 318 318 318 319 320 320 319 318 318 318 318 318 319 317 319 319 313 313 313 316 320 319 314 320 330 332 336 342 343 330 329 337 339 340
316 316 316 317 317 316 317 317 317 317 318 318 318 318 318 319 319 318 318 318 317 318 317 317 319 320 316 317 313 313 317 320 315 314 319 329 332 331 333 337 343 335 334 335
315 316 316 315 315 315 316 317 317 317 318 318 318 318 318 318 317 317 316 316 317 317 317 317 319 319 320 321 315 313 312 312 313 313 313 316 317 320 326 329 332 332 330 337
315 316 314 315 314 315 316 317 316 316 317 317 318 318 318 318 318 318 317 316 316 317 317 318 318 319 319 319 320 322 316 312 318 315 313 318 318 321 326 331 335 333 341 343
315 315 314 314 315 315 315 316 316 316 317 317 317 317 317 318 318 317 317 317 317 318 318 318 318 318 318 319 319 321 323 321 325 320 313 314 318 324 323 321 326 331 338 346
315 315 315 315 315 315 315 315 316 316 316 317 317 317 317 318 318 318 318 316 317 317 318 318 318 318 318 318 319 320 321 322 315 317 324 317 316 314 316 320 324 327 333 337
316 316 315 314 314 315 315 316 316 317 317 318 318 317 318 318 318 318 317 316 316 316 317 317 317 317 317 318 318 319 319 321 321 321 318 324 327 327 320 315 320 323 325 331
316 316 316 315 316 315 316 317 318 320 318 317 318 316 317 317 316 315 315 314 314 315 316 316 317 316 316 317 318 319 319 320 321 322 323 323 324 325 328 328 327 327 327 328
317 316 316 316 316 315 315 315 316 316 316 317 317 317 317 316 315 314 314 315 316 316 316 316 316 315 315 317 317 318 318 319 319 320 321 322 323 324 325 327 327 329 325 327
316 316 316 316 315 315 315 315 316 317 316 315 315 316 316 317 316 316 316 315 316 316 316 316 315 315 316 316 317 317 317 318 319 319 320 320 321 322 324 325 328 329 330 325
316 317 316 316 317 317 315 316 316 315 316 318 321 317 317 317 317 317 317 316 316 316 316 316 317 316 316 315 315 316 317 318 318 318 319 319 320 321 322 324 327 329 330 333
315 316 316 316 315 316 317 316 317 319 316 315 315 315 316 317 317 316 316 316 316 316 316 316 316 316 316 315 315 315 316 316 316 316 316 316 317 319 321 323 326 327 326 330
315 317 318 316 316 315 315 315 314 314 316 317 320 320 318 318 317 317 317 316 316 316 316 316 316 316 316 315 315 315 314 315 315 315 315 316 318 319 321 321 325 328 331 332
313 315 317 317 315 317 317 317 315 315 318 316 315 315 316 316 317 317 316 316 316 316 316 316 316 316 316 315 316 316 315 315 315 315 314 314 316 318 320 320 324 327 330 334
313 314 314 314 315 315 316 316 315 316 315 316 315 315 315 315 316 316 315 315 316 316 316 316 315 315 316 316 316 316 316 316 316 316 315 314 315 316 318 320 323 324 328 332
312 315 313 315 313 313 314 313 313 314 313 314 314 315 316 314 314 314 314 316 316 316 316 315 315 315 315 316 316 316 316 316 316 316 315 314 314 315 318 319 323 324 327 330
312 313 314 316 314 315 314 313 314 313 313 314 314 314 314 314 315 316 317 317 316 315 315 316 316 316 316 316 316 316 316 316 316 315 314 313 313 315 318 320 322 324 326 329
312 313 314 317 314 318 314 314 314 314 314 315 316 316 315 315 316 316 316 315 314 315 316 315 314 314 314 314 314 313 313 313 314 314 314 313 314 316 318 320 320 322 325 333
311 313 314 315 315 313 313 313 313 316 316 315 316 316 316 315 314 314 313 313 315 315 315 314 314 313 312 312 312 312 312 312 312 312 311 314 314 314 313 315 318 322 329 336
314 314 314 315 316 316 317 315 314 315 317 317 316 316 315 314 315 315 314 314 314 313 314 313 312 311 310 311 311 311 310 311 310 311 312 312 312 313 314 315 318 325 332 338
313 313 316 315 317 315 316 315 314 316 318 314 313 314 314 315 315 314 313 313 313 314 314 312 311 310 311 310 309 309 310 310 311 312 314 314 313 313 315 316 320 328 336 337
314 317 317 316 316 317 313 314 315 315 313 314 313 312 313 313 313 313 313 313 313 314 312 311 310 311 310 309 309 310 310 312 312 313 314 314 314 314 317 319 327 333 337 340
316 314 315 314 316 314 312 313 312 312 312 311 312 311 311 311 311 311 311 311 311 311 310 310 310 309 309 308 309 310 311 311 312 313 312 312 314 316 320 323 331 337 338 341
312 312 313 313 314 312 311 311 311 310 310 311 310 308 307 308 308 309 309 310 310 309 309 309 309 308 308 308 309 311 311 312 314 315 312 314 320 321 326 333 337 338 341 342
309 310 310 311 311 309 311 310 310 310 310 310 308 307 307 307 307 307 307 307 308 307 307 307 307 307 309 308 309 311 312 315 318 318 321 332 329 333 336 336 338 339 340 340
308 308 308 308 306 305 305 307 309 310 308 306 306 306 305 305 304 304 304 304 304 305 305 306 306 307 308 308 309 311 313 316 320 321 324 334 335 336 337 337 339 339 339 338
Wind_Speed
15 11 14 16 15 16 18 16 18 12 13 6 14 18 17 18 21 22 23 24 20 15 18 12 7 5 8 11 10 11 12 19 11 16 33 29 19 15 19 18 23 25 31 31
9 13 16 6 9 12 15 17 18 16 8 10 15 20 19 18 18 24 26 24 24 20 18 12 8 6 5 4 10 11 19 24 20 15 15 31 50 36 26 19 20 24 25 30
14 18 6 3 14 13 16 17 16 15 10 10 14 23 23 22 30 28 27 29 26 24 18 17 13 8 5 2 5 8 10 12 17 16 15 13 21 31 35 43 37 42 46 33
11 12 4 12 14 12 15 13 14 13 11 13 11 14 16 6 7 13 17 21 21 17 15 13 13 9 6 4 2 2 7 8 10 17 14 17 18 18 18 16 14 26 31 32
14 4 10 16 13 12 14 9 10 13 16 18 20 13 16 20 14 14 12 15 12 18 17 16 12 7 5 4 3 3 6 6 7 12 16 19 18 17 19 19 20 24 24 24
16 15 9 12 12 8 13 10 14 17 16 17 20 19 17 13 13 12 13 12 15 14 12 11 9 8 7 7 7 8 9 8 10 12 11 15 20 24 24 24 25 24 22 26
20 22 19 15 15 14 13 14 13 15 16 15 15 10 14 4 7 13 12 14 13 14 13 13 11 9 9 11 11 11 9 11 12 13 15 13 16 20 23 28 27 26 26 24
17 15 15 12 14 17 10 15 10 10 13 14 10 7 7 13 14 3 4 8 9 10 13 8 10 12 13 14 14 14 14 14 14 15 15 16 18 18 18 22 25 25 25 26
16 21 13 7 13 13 15 13 12 15 20 17 17 18 12 8 8 9 11 10 10 11 12 12 16 16 15 15 16 17 18 18 17 18 19 20 20 20 21 24 29 28 29 29
16 18 15 16 8 15 17 14 11 10 16 20 18 19 14 17 15 14 8 11 9 10 14 18 19 19 18 18 18 19 19 20 21 21 21 22 22 22 23 24 27 27 30 32
13 16 19 16 12 18 13 15 16 16 15 9 13 5 11 11 9 9 7 5 10 16 18 20 18 17 17 17 18 18 19 20 20 21 22 24 26 25 26 26 26 28 28 31
10 8 14 19 18 9 16 16 19 8 16 14 17 18 10 5 7 7 7 12 12 14 16 19 19 18 18 18 18 19 19 21 22 23 24 26 29 28 29 28 27 30 31 29
9 7 12 16 16 13 11 14 16 19 17 20 16 10 17 11 9 10 18 10 12 14 18 19 19 21 21 20 21 21 21 22 23 24 26 26 29 31 31 32 31 31 31 30
7 14 19 15 19 6 9 19 12 16 14 19 20 25 15 15 22 17 16 17 14 15 18 18 20 22 24 23 24 26 26 26 27 27 28 30 31 32 34 35 34 33 31 30
12 19 20 21 21 24 21 23 18 18 19 20 20 23 19 20 21 22 24 24 22 20 20 20 25 25 25 27 29 31 31 31 30 31 32 32 33 36 37 36 35 35 35 32
13 17 20 23 23 21 23 24 22 24 24 26 26 28 23 28 29 28 31 16 19 21 22 25 28 29 29 30 32 32 32 32 33 35 36 35 36 36 38 38 36 37 38 35
14 13 15 18 20 21 20 22 22 21 21 22 22 24 23 21 18 15 11 13 23 24 28 25 24 27 31 33 33 34 35 36 36 38 39 39 40 38 39 38 37 37 40 35
15 14 9 10 13 10 12 9 9 13 15 15 15 14 16 14 16 10 16 21 30 20 25 26 31 35 35 35 35 38 39 40 41 41 42 43 39 39 37 35 37 39 42 38
12 12 7 10 10 15 21 13 10 15 14 15 12 15 11 13 25 19 22 23 18 21 28 34 34 36 37 37 38 40 41 42 41 43 45 39 37 40 41 41 40 42 39 39
2 7 6 5 6 5 6 3 10 12 14 10 17 17 19 25 16 16 29 32 33 34 32 35 36 37 39 37 36 41 45 41 43 40 40 41 44 42 40 41 42 43 38 40
3 1 7 11 8 8 4 11 15 9 6 25 23 26 27 19 23 36 36 35 35 38 37 35 38 38 33 38 42 44 40 41 39 42 38 38 45 42 40 46 41 39 35 41
3 3 4 4 4 5 4 11 8 13 24 25 24 24 24 29 32 33 35 37 38 41 37 38 39 33 36 40 39 38 40 37 36 39 38 39 43 44 41 37 38 33 38 39
2 5 4 3 5 17 14 16 21 17 22 26 27 29 29 33 36 35 36 36 40 39 37 35 36 40 37 36 32 37 39 38 41 39 41 45 47 36 33 28 33 36 41 42
6 11 5 9 2 14 22 22 21 24 25 29 31 31 34 36 38 39 40 38 39 38 39 40 39 36 36 34 32 33 41 33 33 36 43 53 42 43 39 34 38 39 40 42
3 11 10 15 12 23 8 25 28 29 31 35 37 37 37 39 42 44 46 44 40 38 37 34 36 36 34 32 31 34 35 33 39 43 40 27 32 33 37 37 37 39 45 48
5 3 3 7 26 19 22 30 33 35 37 37 41 44 47 40 38 35 38 38 38 36 34 33 33 34 34 31 29 29 27 27 30 36 32 28 36 37 40 42 36 40 38 35
Wind_Direction
205 253 238 248 242 259 289 291 293 288 229 219 266 265 252 231 207 226 236 241 222 223 204 197 202 226 245 253 258 251 246 259 273 250 235 250 266 263 253 273 259 244 239 251
253 243 262 317 301 282 269 258 258 261 260 263 262 264 258 250 239 236 242 228 232 220 220 207 203 202 237 224 247 242 234 246 266 270 255 234 237 251 256 263 264 284 274 256
259 280 20 248 254 247 247 257 263 267 266 255 268 264 255 250 245 244 238 248 234 219 205 213 214 207 195 205 258 249 253 251 248 265 262 262 248 249 246 250 253 263 272 263
274 261 264 247 248 264 267 249 239 281 272 262 243 279 265 232 220 232 235 237 236 206 180 202 211 202 195 196 239 283 280 271 282 271 255 262 257 249 237 234 253 247 257 264
281 207 238 243 250 267 264 305 286 262 268 277 262 260 261 248 221 207 191 193 194 192 195 200 213 226 225 229 257 286 298 312 310 295 269 277 274 274 268 260 254 249 244 263
253 279 258 271 283 278 280 285 257 256 256 253 255 252 261 234 209 159 179 196 184 188 199 214 233 253 262 268 266 280 290 299 300 298 306 289 278 268 265 260 251 243 253 257
239 231 224 221 255 237 242 250 256 244 230 245 239 254 240 80 159 159 175 181 188 204 224 219 234 248 253 262 263 273 276 283 296 295 294 281 276 271 268 267 267 262 255 249
280 279 218 184 234 265 207 266 270 277 289 284 137 236 285 249 157 190 240 245 241 223 231 225 257 270 270 268 270 279 283 285 280 280 281 278 274 274 271 269 270 263 260 258
260 262 286 206 215 234 265 266 275 290 281 282 278 280 157 157 163 210 222 214 227 239 248 261 269 273 275 274 272 275 278 280 280 282 281 280 282 285 276 263 263 266 262 254
280 281 274 223 265 257 258 274 259 240 264 259 262 249 241 166 196 189 196 212 229 260 271 272 275 277 277 277 277 275 272 274 280 282 283 283 279 276 274 273 269 269 270 256
272 271 265 271 206 257 246 234 240 251 256 272 281 277 77 168 149 173 204 250 273 275 273 275 278 277 277 278 278 278 277 276 278 280 282 282 281 278 277 274 271 268 265 270
258 281 276 270 271 274 274 258 232 252 244 238 253 272 195 244 171 171 221 255 291 298 286 278 277 272 275 275 276 278 277 279 282 283 284 287 282 276 272 270 267 268 267 265
314 252 267 265 263 273 254 258 255 264 255 258 258 266 325 182 208 220 242 285 286 293 294 282 278 274 275 275 275 277 277 278 280 284 286 287 285 278 274 274 269 266 262 260
316 274 271 273 294 130 241 236 263 281 255 264 258 270 176 200 242 265 281 293 282 292 294 292 286 281 278 277 282 286 286 286 285 287 289 287 287 276 274 273 267 265 260 260
250 263 269 270 275 275 259 259 246 242 262 271 267 269 266 285 286 291 295 285 279 273 278 293 301 293 281 280 282 282 281 283 283 283 285 284 283 277 273 270 267 264 258 256
258 255 262 268 273 278 269 270 265 262 261 260 263 264 269 270 277 280 278 275 288 281 294 296 294 289 287 285 285 285 284 281 280 279 279 284 282 274 270 269 265 264 258 252
261 265 271 268 272 282 257 258 260 260 265 266 261 267 268 274 274 264 301 299 281 293 296 294 305 303 294 291 292 285 282 282 280 278 275 281 279 271 267 264 261 261 258 248
259 260 270 275 290 270 261 310 308 301 277 268 275 264 276 295 330 311 282 293 290 307 300 299 295 290 289 287 287 290 289 284 279 275 274 278 271 268 265 262 265 262 253 244
246 243 251 252 266 272 282 304 299 283 287 296 244 310 353 342 304 299 292 290 320 301 295 293 292 293 291 291 293 291 288 284 280 277 277 268 265 261 264 261 267 256 244 239
290 268 240 262 247 271 25 332 343 313 279 15 346 335 328 317 301 293 317 312 308 303 294 294 294 293 293 293 294 293 286 279 281 277 272 272 267 270 268 266 272 248 237 225
145 180 235 241 247 270 30 353 322 278 323 325 328 318 317 306 297 302 298 295 295 291 291 295 294 292 297 296 294 287 283 282 283 282 276 268 269 269 264 269 258 239 226 213
266 214 196 223 241 265 290 306 331 318 313 315 314 311 301 298 298 296 294 294 292 290 295 296 296 297 296 295 291 285 284 290 287 284 279 275 273 267 266 257 244 227 210 198
22 355 304 301 298 320 340 330 318 325 311 310 311 309 300 293 293 299 292 288 288 293 296 300 299 297 295 292 287 287 291 291 293 293 283 275 278 264 238 237 223 201 185 174
342 20 317 323 341 325 329 318 326 319 313 315 307 305 308 303 301 301 302 303 301 299 297 296 294 294 293 293 290 289 293 294 283 281 283 278 249 253 234 198 181 174 166 159
334 307 333 292 290 337 325 326 318 314 315 311 313 316 311 309 302 298 293 293 291 290 291 290 292 291 290 290 291 296 302 293 293 286 303 98 153 162 161 167 165 162 169 162
10 340 305 286 313 306 287 303 307 306 304 320 322 314 305 300 299 294 291 290 290 289 288 287 288 287 287 290 291 293 295 294 305 311 347 107 138 141 142 143 141 150 153 156